sat.trackr.live / text

‹ back to catalog

STARLINK-33895

NORAD 63934 · 2025-098J

PAYLOAD ACTIVE UNKNOWN

§ Identity

Operator
Country
US
Launch date
2025-05-13
Launch site
AFWTR
Launch vehicle
Mass (kg)
RCS (m²)

Purposes: comms

External: N2YO · Heavens-Above · Gunter

§ Orbital elements

Epoch: 2026-05-25T02:59:46.353120Z

Period
96.11 min
Inclination
70.0008°
Eccentricity
0.0002971
Mean motion
14.98342171 rev/d
Perigee alt
570.0 km
Apogee alt
574.1 km
Semi-major
6,950.2 km
B*
3.6125e-4
RAAN
81.6584°
Arg perigee
268.7999°
Mean anomaly
91.2820°
Rev number
5,802

§ Raw data

STARLINK-338951 63934U 25098J   26145.12484205  .00004221  00000+0  36125-3 0  99912 63934  70.0008  81.6584 0002971 268.7999  91.2820 14.98342171 58020

JSON: /api/v1/satellites/63934 · /tle

For live sub-satellite position, see the globe view (requires WebGL).

§ Visibility from observer

Set your observer location to see the next 7 days of passes ≥ 10°. The values pass through the URL so the page stays shareable.

No JS? Fill the form by hand. The geolocation button needs JavaScript.